[[{"header":{"parameterUnit":"m.s-1","parameterCategory":1,"la1":30.2991,"la2":30.254,"lo1":-89.0895,"lo2":-89.0444,"dy":0.0017,"dx":0.0017,"nx":28,"ny":28,"refTime":"2024-03-31T03:00:00:Z","depth":0,"parameterNumber":2,"parameterNumberName":"U-component_of_WINDS"},"data":[0,0,0,0,0,0,0,0,0,0,0,0,0,0,0,0,0,0,0,0,0,0,0,0,0,0,0,0,0,0,0,0,0,0,0,0,0,0,0,0,0,0,0,0,0,0,0,0,0,0,0,0,0,0,0,0,0,0,-1.0452,-1.0452,0,-1.0447,-1.0447,-1.0447,-1.0426,-1.0426,-1.0425,-1.0425,-1.0419,-1.0419,-1.042,0,0,0,0,0,0,0,0,0,0,0,0,0,-1.0446,-1.0446,-1.0452,-1.0452,-1.0452,-1.0447,-1.0447,-1.0447,-1.0426,-1.0426,-1.0425,-1.0424,-1.0419,-1.0419,-1.042,0,0,0,0,0,0,0,0,0,0,0,0,0,-1.0446,-1.0446,-1.0452,-1.0441,-1.044,-1.0447,-1.0447,-1.0447,-1.0426,-1.0426,-1.0425,-1.0424,-1.0419,-1.0419,-1.042,-1.0437,0,0,-1.0421,-1.0421,0,0,0,0,0,0,0,0,-1.0446,-1.0446,-1.0443,-1.0442,-1.0441,-1.0436,-1.0442,-1.0443,-1.0426,-1.0432,-1.0425,-1.0424,-1.0425,-1.0425,-1.0426,-1.0436,-1.0436,-1.0421,-1.0421,-1.0422,-1.0422,0,0,0,0,0,0,0,-1.0446,-1.0446,-1.045,-1.0443,-1.0442,-1.0437,-1.0436,-1.0442,-1.0433,-1.0431,-1.043,-1.0429,-1.0425,-1.0425,-1.0426,-1.0436,-1.0421,-1.0422,-1.0422,-1.0422,-1.0461,-1.0461,0,0,0,0,0,0,-1.0447,-1.0446,-1.045,-1.045,-1.0442,-1.0438,-1.0437,-1.0439,-1.0432,-1.0431,-1.043,-1.0428,-1.0425,-1.0425,-1.0425,-1.0445,-1.0422,-1.0422,-1.0422,-1.046,-1.0461,-1.0462,0,0,0,0,0,0,-1.0447,-1.0448,-1.045,-1.0448,-1.0448,-1.0438,-1.0441,-1.0439,-1.0439,-1.0431,-1.043,-1.0432,-1.0424,-1.0425,-1.0434,-1.0444,-1.0422,-1.0423,-1.0459,-1.046,-1.0461,-1.0484,0,0,0,0,0,0,-1.0447,-1.0448,-1.0454,-1.0448,-1.0448,-1.0459,-1.0441,-1.0439,-1.044,-1.0438,-1.0433,-1.0432,-1.0424,-1.0433,-1.0434,-1.0444,-1.0423,-1.0458,-1.0459,-1.0461,-1.0482,-1.0485,-1.0488,0,0,0,0,0,-1.0447,-1.046,-1.0454,-1.0455,-1.0455,-1.046,-1.046,-1.045,-1.0441,-1.0447,-1.0442,-1.0432,-1.0443,-1.0435,-1.0436,-1.0446,-1.0457,-1.0459,-1.0461,-1.048,-1.0485,-1.0488,0,0,0,0,0,0,-1.0468,-1.0459,-1.0452,-1.0464,-1.0463,-1.0456,-1.0464,-1.0455,-1.0456,-1.0454,-1.0443,-1.0442,-1.0453,-1.045,-1.0441,-1.0462,-1.0448,-1.045,-1.0463,-1.0467,-1.047,-1.0471,-1.0423,0,0,0,0,0,-1.0474,-1.0478,-1.047,-1.0482,-1.0481,-1.0473,-1.0474,-1.0467,-1.0465,-1.0465,-1.046,-1.0459,-1.0462,-1.0465,-1.0467,-1.0482,-1.048,-1.0489,-1.0492,-1.0495,-1.0497,-1.0505,-1.0509,-1.0467,-1.0467,-1.0467,0,0,-1.0486,-1.0482,-1.0485,-1.0486,-1.0484,-1.0489,-1.0472,-1.0478,-1.0482,-1.0466,-1.0474,-1.0471,-1.0469,-1.0481,-1.0486,-1.0479,-1.0508,-1.0497,-1.0499,-1.05,-1.0507,-1.0511,-1.0514,-1.0468,-1.0468,-1.0468,0,0,-1.0511,-1.0508,-1.0517,-1.0516,-1.0513,-1.0508,-1.051,-1.0505,-1.0502,-1.0511,-1.0499,-1.0503,-1.0509,-1.0508,-1.0508,-1.0534,-1.0525,-1.0535,-1.0552,-1.056,-1.0563,-1.0566,-1.0575,-1.0578,-1.0537,-1.0537,-1.0537,0,-1.0526,-1.0533,-1.0523,-1.053,-1.0531,-1.0517,-1.0526,-1.0525,-1.0524,-1.0525,-1.0517,-1.0524,-1.0522,-1.0534,-1.054,-1.0541,-1.0543,-1.0535,-1.0563,-1.0566,-1.0568,-1.0577,-1.0581,-1.0538,-1.0538,-1.0538,-1.0538,0,-1.0553,-1.0558,-1.0565,-1.0564,-1.0566,-1.0574,-1.0566,-1.0569,-1.0562,-1.0557,-1.0566,-1.0563,-1.0565,-1.0567,-1.0561,-1.0579,-1.0574,-1.0565,-1.0551,-1.0574,-1.0582,-1.0585,-1.054,-1.054,-1.0539,-1.0539,0,0,-1.059,-1.0583,-1.0586,-1.0586,-1.0583,-1.0586,-1.0594,-1.0596,-1.0599,-1.0599,-1.0605,-1.0611,-1.0602,-1.0603,-1.0596,-1.0603,-1.0624,-1.0593,-1.0592,-1.0599,-1.0643,-1.065,-1.0654,-1.0618,-1.0618,-1.0619,-1.0644,0,-1.0613,-1.0626,-1.0618,-1.0632,-1.0636,-1.0624,-1.063,-1.0629,-1.0625,-1.0629,-1.0625,-1.0629,-1.0618,-1.0618,-1.0624,-1.062,-1.0632,-1.0618,-1.0624,-1.0624,-1.0624,-1.0658,-1.0665,-1.0689,-1.0647,-1.0647,-1.0648,0,-1.0642,-1.0643,-1.0658,-1.0654,-1.0656,-1.0662,-1.0663,-1.0667,-1.0666,-1.0662,-1.0663,-1.0655,-1.0663,-1.065,-1.066,-1.0651,-1.0653,-1.0651,-1.0652,-1.0652,-1.0637,-1.0659,-1.0696,-1.07,-1.0652,-1.0652,-1.0652,0,-1.0668,-1.0673,-1.0683,-1.0683,-1.0678,-1.0683,-1.0682,-1.068,-1.0681,-1.0683,-1.0684,-1.0686,-1.0687,-1.069,-1.0682,-1.0673,-1.0694,-1.068,-1.0692,-1.0692,-1.0696,-1.0696,-1.0734,-1.0698,-1.0698,-1.0698,-1.0698,0,-1.0695,-1.0705,-1.0694,-1.07,-1.071,-1.0701,-1.0712,-1.0709,-1.0707,-1.0713,-1.0702,-1.0707,-1.0697,-1.0702,-1.0696,-1.0706,-1.0707,-1.0705,-1.0703,-1.0706,-1.0706,-1.0706,-1.0705,-1.0699,-1.0699,-1.0699,-1.0698,0,-1.0725,-1.0719,-1.0728,-1.0724,-1.0723,-1.0731,-1.0727,-1.0732,-1.0728,-1.0735,-1.0736,-1.0729,-1.0734,-1.0727,-1.0731,-1.0727,-1.0741,-1.0737,-1.0741,-1.074,-1.0752,-1.0751,-1.0792,-1.0797,-1.0757,-1.0758,-1.0758,0,-1.0743,-1.075,-1.0746,-1.0749,-1.0748,-1.0753,-1.0755,-1.0746,-1.0749,-1.0748,-1.0754,-1.0758,-1.076,-1.0768,-1.0764,-1.0767,-1.0763,-1.0777,-1.0763,-1.0766,-1.0763,-1.0763,-1.0764,-1.078,-1.078,-1.0781,-1.0781,0,-1.0775,-1.0772,-1.0775,-1.0777,-1.078,-1.0781,-1.0782,-1.0785,-1.0776,-1.0779,-1.0784,-1.0786,-1.079,-1.0794,-1.0796,-1.0795,-1.0787,-1.0785,-1.0788,-1.0791,-1.0793,-1.0792,-1.0749,-1.0784,-1.0784,-1.0784,-1.0784,-1.0784,-1.08,-1.0806,-1.0804,-1.0808,-1.0807,-1.0808,-1.0813,-1.081,-1.0814,-1.0816,-1.0811,-1.0817,-1.0816,-1.0818,-1.0818,-1.0823,-1.0817,-1.0821,-1.0822,-1.0823,-1.0825,-1.0793,-1.0824,-1.0823,-1.0823,-1.0823,-1.0823,0,-1.0831,-1.083,-1.0834,-1.0835,-1.0838,-1.083,-1.0831,-1.0834,-1.0839,-1.0839,-1.0842,-1.0848,-1.0852,-1.0848,-1.0852,-1.0856,-1.0853,-1.0858,-1.0857,-1.0857,-1.083,-1.0828,-1.0861,-1.0861,-1.0861,-1.0861,-1.0861,-1.0861,-1.0848,-1.0858,-1.0854,-1.0864,-1.0862,-1.0868,-1.0869,-1.087,-1.087,-1.0877,-1.088,-1.0877,-1.0876,-1.0879,-1.0883,-1.0882,-1.0884,-1.089,-1.0887,-1.0863,-1.0859,-1.0855,-1.0853,-1.089,-1.089,-1.0914,-1.0914,-1.0914]},{"header":{"parameterUnit":"m.s-1","parameterCategory":1,"la1":30.2991,"la2":30.254,"lo1":-89.0895,"lo2":-89.0444,"dy":0.0017,"dx":0.0017,"nx":28,"ny":28,"refTime":"2024-03-31T03:00:00:Z","depth":0,"parameterNumber":3,"parameterNumberName":"V-component_of_WINDS"},"data":[0,0,0,0,0,0,0,0,0,0,0,0,0,0,0,0,0,0,0,0,0,0,0,0,0,0,0,0,0,0,0,0,0,0,0,0,0,0,0,0,0,0,0,0,0,0,0,0,0,0,0,0,0,0,0,0,0,0,3.6175,3.6175,0,3.6169,3.6169,3.6169,3.6122,3.6121,3.612,3.6119,3.6113,3.6114,3.6115,0,0,0,0,0,0,0,0,0,0,0,0,0,3.6146,3.6147,3.6175,3.6175,3.6175,3.6169,3.6169,3.6169,3.6123,3.6121,3.612,3.6119,3.6113,3.6114,3.6115,0,0,0,0,0,0,0,0,0,0,0,0,0,3.6151,3.6147,3.6175,3.6151,3.6149,3.6169,3.6169,3.6169,3.6123,3.6121,3.612,3.6118,3.6113,3.6114,3.6115,3.6158,0,0,3.6119,3.612,0,0,0,0,0,0,0,0,3.6151,3.6152,3.6154,3.6153,3.615,3.6145,3.6157,3.6165,3.6123,3.6133,3.6119,3.6117,3.6125,3.6125,3.6128,3.6158,3.6158,3.612,3.612,3.6121,3.6121,0,0,0,0,0,0,0,3.6151,3.6152,3.6173,3.6155,3.6152,3.6141,3.6139,3.6158,3.6139,3.6132,3.6128,3.6128,3.6124,3.6127,3.6128,3.6158,3.6119,3.6121,3.6122,3.6122,3.6224,3.6226,0,0,0,0,0,0,3.6154,3.6152,3.6173,3.6172,3.6146,3.6143,3.6141,3.6148,3.6138,3.6135,3.613,3.6126,3.6125,3.6126,3.6127,3.6178,3.6121,3.6122,3.6123,3.6222,3.6225,3.6227,0,0,0,0,0,0,3.6153,3.6156,3.6173,3.6161,3.6163,3.6145,3.6153,3.6149,3.6152,3.6137,3.6133,3.6137,3.6124,3.6125,3.6151,3.6177,3.6123,3.6124,3.622,3.6223,3.6226,3.6279,0,0,0,0,0,0,3.6152,3.6156,3.6172,3.6162,3.6164,3.6197,3.6155,3.615,3.6155,3.615,3.6142,3.6139,3.6123,3.6149,3.6153,3.6178,3.6125,3.6218,3.6221,3.6225,3.6275,3.6283,3.6291,0,0,0,0,0,3.6152,3.6187,3.6173,3.6176,3.6183,3.6199,3.6199,3.6179,3.6157,3.6173,3.6163,3.614,3.6174,3.6152,3.6156,3.6182,3.6216,3.622,3.6224,3.6271,3.6282,3.629,0,0,0,0,0,0,3.6199,3.6185,3.6169,3.6202,3.6202,3.6191,3.621,3.6191,3.6197,3.6192,3.6167,3.6166,3.6196,3.6191,3.6168,3.6224,3.6191,3.6196,3.6225,3.6235,3.6243,3.6243,3.6126,0,0,0,0,0,3.6214,3.6228,3.6214,3.6245,3.6245,3.6228,3.6234,3.6219,3.6218,3.6217,3.6209,3.6209,3.622,3.6227,3.6236,3.6274,3.6272,3.6294,3.6302,3.6308,3.6313,3.6334,3.6343,3.624,3.624,3.624,0,0,3.6243,3.6237,3.6247,3.6254,3.6252,3.6267,3.6228,3.6245,3.6257,3.622,3.6244,3.6238,3.6236,3.6269,3.6283,3.6266,3.6341,3.6313,3.6319,3.632,3.6339,3.6349,3.6358,3.6243,3.6243,3.6242,0,0,3.6306,3.6302,3.6328,3.6327,3.6325,3.6313,3.632,3.6311,3.6306,3.6331,3.6303,3.6316,3.6335,3.6335,3.6338,3.6402,3.6381,3.6405,3.6446,3.6467,3.6475,3.6482,3.6506,3.6515,3.641,3.641,3.641,0,3.6343,3.6365,3.6343,3.6363,3.6367,3.6335,3.6361,3.6361,3.6362,3.6366,3.6347,3.6371,3.6367,3.64,3.6416,3.6418,3.6425,3.6406,3.6476,3.6483,3.6489,3.6511,3.652,3.6413,3.6413,3.6413,3.6412,0,3.6411,3.6427,3.6448,3.645,3.6456,3.6479,3.6462,3.6471,3.6456,3.6447,3.6472,3.6467,3.6475,3.6481,3.6466,3.6513,3.6502,3.648,3.6447,3.6502,3.6523,3.6531,3.6418,3.6417,3.6416,3.6415,0,0,3.6502,3.6493,3.6502,3.6503,3.6499,3.6511,3.6533,3.6541,3.6549,3.6551,3.657,3.6587,3.6567,3.657,3.6554,3.6573,3.6625,3.6548,3.6548,3.6563,3.6677,3.6694,3.6704,3.6611,3.6613,3.6614,3.6677,0,3.6562,3.6599,3.6581,3.662,3.6635,3.6606,3.6625,3.6625,3.6617,3.6629,3.662,3.6633,3.6605,3.6607,3.6624,3.6615,3.6648,3.661,3.6628,3.6629,3.663,3.6715,3.6733,3.6793,3.6685,3.6687,3.6688,0,3.6637,3.6643,3.6684,3.6679,3.6685,3.6702,3.6709,3.672,3.672,3.6713,3.6718,3.6698,3.672,3.6687,3.6717,3.6692,3.6698,3.6695,3.6697,3.6698,3.6662,3.6719,3.6811,3.6821,3.67,3.6699,3.6698,0,3.6701,3.6719,3.6746,3.6748,3.6742,3.6756,3.6754,3.6752,3.6759,3.6765,3.6769,3.6777,3.6782,3.6789,3.6773,3.675,3.6805,3.6771,3.6801,3.6801,3.6813,3.6813,3.6909,3.6817,3.6817,3.6817,3.6817,0,3.677,3.6796,3.6775,3.6792,3.6821,3.68,3.683,3.6825,3.6824,3.6839,3.6814,3.6829,3.6807,3.682,3.6808,3.6835,3.6837,3.6833,3.6829,3.6835,3.6836,3.6839,3.6835,3.6819,3.6819,3.6818,3.6818,0,3.6845,3.6832,3.686,3.6853,3.6852,3.6874,3.6867,3.6883,3.6874,3.6894,3.6898,3.6884,3.6898,3.6883,3.6896,3.6888,3.6925,3.6915,3.6925,3.6922,3.6954,3.6951,3.7055,3.7068,3.6968,3.6969,3.697,0,3.6891,3.691,3.6906,3.6915,3.6915,3.693,3.6936,3.6918,3.6926,3.6928,3.6944,3.6956,3.6965,3.6989,3.698,3.6991,3.6981,3.7017,3.6982,3.6988,3.6983,3.6982,3.6984,3.7024,3.7025,3.7026,3.7027,0,3.6973,3.6966,3.6977,3.6986,3.6995,3.7002,3.7006,3.7015,3.6995,3.7006,3.7021,3.7028,3.7042,3.7055,3.7063,3.7061,3.7041,3.7038,3.7046,3.7052,3.7058,3.7056,3.6945,3.7036,3.7035,3.7034,3.7034,3.7033,3.7035,3.7052,3.7052,3.7065,3.7067,3.7072,3.7087,3.708,3.7092,3.7103,3.7091,3.7109,3.711,3.7118,3.7119,3.7133,3.7118,3.7129,3.7132,3.7135,3.714,3.7055,3.7135,3.7134,3.7134,3.7134,3.7134,0,3.7116,3.7115,3.7128,3.7136,3.7147,3.7128,3.7132,3.7143,3.7159,3.7161,3.7171,3.7189,3.7202,3.7194,3.7206,3.7219,3.721,3.7222,3.7221,3.7221,3.7153,3.7145,3.7229,3.7229,3.7229,3.7229,3.7229,3.7229,3.716,3.7188,3.7181,3.721,3.7209,3.7227,3.7231,3.7236,3.7238,3.7259,3.727,3.7265,3.7264,3.7275,3.7286,3.7284,3.7289,3.7305,3.73,3.7235,3.7226,3.7217,3.721,3.7306,3.7306,3.7367,3.7368,3.7368]}]]